User: anonymous   Login
Location: Sunny Point
(33.0946°N, 85.0574°W)
Time: 09:12:46
(UTC+00:00)
Language:

UNISAT 6 - Orbit

View from above orbital plane
View from above orbital plane
View from above satellite
View from above satellite

Ground track
Ground track

The orbit data is extracted from the following two-line orbital elements,

1 40012U 14033C   24205.91823097  .00007399  00000-0  95583-3 0  9991
2 40012  97.7071   6.8587 0052354 184.1196 175.9593 14.80253205543273
Epoch (UTC): 23 July 2024 22:02:15
Eccentricity: 0.0052354
inclination: 97.7071°
perigee height: 592 km
apogee height: 665 km
right ascension of ascending node: 6.8587°
argument of perigee: 184.1196°
revolutions per day: 14.80253205
mean anomaly at epoch: 175.9593°
orbit number at epoch: 54327

The dashed part of the orbit path shows where the satellite is in the earth's shadow,  

DLR